Regional Weather Roundup
Issued by NWS

Home | Current Version | Previous Version | Graphics & Text | Print | Product List | Glossary On
Versions: 1 2 3 4 5 6 7 8 9 10 11 12 13 14 15 16 17 18 19 20 21 22 23 24 25 26 27 28 29 30 31 32 33 34 35 36 37 38 39 40 41 42 43 44 45 46 47 48 49 50
000
ASUS43 KMPX 290110
RWRMN
WEATHER ROUNDUP FOR MINNESOTA
NATIONAL WEATHER SERVICE TWIN CITIES/CHANHASSEN MN
800 PM CDT THU MAY 28 2015


NOTE: "FAIR" INDICATES FEW OR NO CLOUDS BELOW 12,000 FEET WITH NO
SIGNIFICANT WEATHER AND/OR OBSTRUCTIONS TO VISIBILITY. N/A MEANS
CURRENT SKY AND/OR WEATHER CONDITIONS ARE NOT AVAILABLE.

MNZ060>063-068>070-290200-
   Twin Cities Metro

CITY           SKY/WX    TMP DP  RH WIND       PRES   REMARKS
TWIN CITIES    MOCLDY    81  51  35 S20G30    29.90S
ST PAUL        MOCLDY    77  53  43 S14G21    29.90S
CRYSTAL        MOCLDY    79  50  36 S10       29.88S
BLAINE         MOCLDY    79  52  38 S12       29.89F
LAKEVILLE      PTCLDY    75  48  38 S8G16     29.91S
EDEN PRAIRIE   PTCLDY    78  51  38 S16       29.88F
SOUTH ST PAUL  MOCLDY    80  50  35 S10G20    29.90S
LAKE ELMO      FAIR      77  54  44 S12       29.92S
$$
MNZ001>005-007-008-013>017-022>024-027-028-290200-
   Northwest Minnesota

CITY           SKY/WX    TMP DP  RH WIND       PRES   REMARKS
BEMIDJI        RAIN      64  59  85 W14G24    29.86R
HALLOCK        CLOUDY    66  63  88 CALM      29.80R
ROSEAU         RAIN      63  57  82 S7        29.81F
WARROAD        RAIN      61  57  88 S7        29.82F
THIEF RVR FALL CLOUDY    66  64  94 S5        29.83R
CROOKSTON      CLOUDY    70  64  83 N3        29.80S
FOSSTON        CLOUDY    63  59  88 CALM      29.83F
DETROIT LAKES  CLOUDY    64  61  88 NW6       29.85R
MOORHEAD       LGT RAIN  64  61  88 S5G10     29.79F
PARK RAPIDS    CLOUDY    77  51  40 S7        29.81F
MAHNOMEN       CLOUDY    64  59  82 S7        29.80F
$$
MNZ006-009>011-018-025>026-290200-
   North Central Minnesota

CITY           SKY/WX    TMP DP  RH WIND       PRES   REMARKS
BAUDETTE       RAIN      62  59  90 S8        29.85R FOG
FLAG ISLAND    RAIN      59  57  94 SE3       29.83R
INTL FALLS     LGT RAIN  60  57  89 N7        29.83R
WASKISH        RAIN      61  59  94 NW6G16    29.86R
BIG FORK       CLOUDY    75  50  41 S9G17     29.84R
LONGVILLE      CLOUDY    75  50  41 S10       29.84S
GRAND RAPIDS   CLOUDY    73  52  46 S12       29.86S
CRANE LAKE     CLOUDY    73  52  46 S7        29.84S
ORR            CLOUDY    73  48  40 S7        29.81S
COOK           CLOUDY    72  52  49 S9G18     29.86S
WALKER         CLOUDY    74  50  42 S5        29.81F
$$
MNZ012-019>021-037-290200-
   Northeast Minnesota

CITY           SKY/WX    TMP DP  RH WIND       PRES   REMARKS
DULUTH         MOCLDY    46  43  89 E13       29.93F
HIBBING        CLOUDY    68  50  52 S8        29.88S
EVELETH          N/A     64  48  55 S7        29.90S
DULUTH HARBOR  CLOUDY    43  39  87 NE13      29.97F FOG
TWO HARBORS    PTCLDY    52  46  82 E5        29.93F
SILVER BAY     PTCLDY    48  45  87 NE7       29.94F
GRAND MARAIS     N/A     44  41  89 NE12      29.98R
G MARAIS ARPRT PTCLDY    55  46  71 CALM      29.97S
$$
MNZ029>031-032-039>041-046>048-054>057-064-290200-
   West Central Minnesota

CITY           SKY/WX    TMP DP  RH WIND       PRES   REMARKS
FERGUS FALLS   MOCLDY    66  57  72 NW20G26   29.83R
WHEATON        MOCLDY    79  55  44 S13G18    29.79S
MORRIS         MOCLDY    81  52  36 S13       29.79S
ALEXANDRIA     PTCLDY    78  49  35 S15G23    29.83F
ELBOW LAKE     FAIR      78  52  39 S13       29.79F
WADENA         MOCLDY    75  50  41 S9        29.81S
GLENWOOD       PTCLDY    75  50  41 S12       29.85S
APPLETON       PTCLDY    81  54  39 S12       29.80R
BENSON         PTCLDY    79  48  34 S13       29.81S
ORTONVILLE     MOCLDY    79  55  44 S9        29.79S
MADISON        PTCLDY    79  54  41 MISG      29.81R
WILLMAR          N/A     81  52  36 S6        29.85S
$$
MNZ033>034-036-042>043-049>051-058-059-290200-
   Central Minnesota

CITY           SKY/WX    TMP DP  RH WIND       PRES   REMARKS
ST CLOUD       CLEAR     78  50  37 S10G20    29.86R
SAUK CENTRE    FAIR      76  51  40 S15       29.85S
PAYNESVILLE    PTCLDY    76  48  38 SE12      29.87R
AITKIN         MOCLDY    75  54  46 S9        29.85S
PINE RIVER     MOCLDY    75  54  46 S9        29.87S
BRAINERD       PTCLDY    75  52  44 S10       29.85F
STAPLES        PTCLDY    75  48  38 S10       29.82F
LONG PRAIRIE   FAIR      77  50  38 SE16G22   29.85S
LITTLE FALLS   CLEAR     77  45  31 S14       29.86S
LITCHFIELD     PTCLDY    79  50  36 S7        29.87S
BUFFALO        PTCLDY    77  51  39 SE7       29.89R
MAPLE LAKE     PTCLDY    79  54  42 S5        29.88S
$$
MNZ037-044-045-052-053-290200-
   East Central Minnesota

CITY           SKY/WX    TMP DP  RH WIND       PRES   REMARKS
PRINCETON      PTCLDY    79  52  38 S12G20    29.88S
MORA           CLEAR     75  46  35 S9        29.90S
CAMBRIDGE      PTCLDY    81  57  44 S10G20    29.88S
RUSH CITY      PTCLDY    77  54  44 S8G18     29.90S
MOOSE LAKE     CLOUDY    55  46  71 NE6       29.89S
HINCKLEY       FAIR      77  52  41 S10       29.90S
CLOQUET        MOCLDY    48  43  81 E8        29.93F
MCGREGOR       MOCLDY    77  54  44 S9G17     29.87F
$$
MNZ071>073-080-081-089-090-097-098-290200-
   Southwest Minnesota

CITY           SKY/WX    TMP DP  RH WIND       PRES   REMARKS
MONTEVIDEO     PTCLDY    81  55  41 SW16G22   29.82R
GRANITE FALLS  PTCLDY    79  56  44 S22G28    29.85R
CANBY          PTCLDY    77  54  44 S14G21    29.84R
MARSHALL       MOCLDY    77  55  47 S17G25    29.84R
REDWOOD FALLS  PTCLDY    78  57  48 S20G28    29.85R
OLIVIA         PTCLDY    73  54  49 S14G23    29.85R
PIPESTONE      PTCLDY    73  55  53 S20       29.87S
WINDOM         PTCLDY    72  57  60 S15G26    29.90S
WORTHINGTON    MOCLDY    70  57  64 S18G26    29.91R
JACKSON        MOCLDY    70  59  68 S21       29.92S
TRACY          MOCLDY    75  59  56 S13G26    29.87R
SLAYTON        MOCLDY    73  57  57 S18G25    29.90R
$$
MNZ065>067-074>077-082>085-091>093-290200-
   South Central Minnesota

CITY           SKY/WX    TMP DP  RH WIND       PRES   REMARKS
MANKATO        PTCLDY    77  50  38 S14G20    29.89F
NEW ULM        PTCLDY    75  55  50 S16G26    29.88R
ST JAMES       PTCLDY    75  57  53 S17G24    29.90S
FAIRMONT       PTCLDY    72  55  56 S22       29.90F
GLENCOE        PTCLDY    80  52  38 S8G20     29.88R
FARIBAULT      PTCLDY    77  52  41 S15G22    29.92F
OWATONNA       PTCLDY    79  50  36 S16G23    29.92F
WASECA         PTCLDY    77  52  41 S17G25    29.92F
ALBERT LEA     MOCLDY    75  52  43 S13G18    29.94F
$$
MNZ078>079-086>088-094>096-290200-
   Southeast Minnesota

CITY           SKY/WX    TMP DP  RH WIND       PRES   REMARKS
ROCHESTER      MOCLDY    74  53  48 S16       29.97F
RED WING       PTCLDY    79  48  34 S9        29.92F
STANTON        PTCLDY    78  51  39 S13G18    29.91F
DODGE CENTER   PTCLDY    75  52  43 S17       29.95F
WINONA         PTCLDY    77  55  47 SE8       29.98F
AUSTIN         MOCLDY    73  52  46 S8        29.96F
PRESTON        MOCLDY    73  52  47 S14G21    30.00F
$$
ABBREVIATIONS USED IN REMARKS
   TC - TEMPERATURES IN CELSIUS
  WCI - WIND CHILL INDEX
   HX - HEAT INDEX
  VSB - VISIBILITY
$$


USA.gov is the U.S. government's official web portal to all federal, state and local government web resources and services.